Flag Weather past 2 weeks in Ndjamena, Chad

Now
73 °F

Clear.


Feels Like: 77 °F
Forecast: 60 / 93 °F
Wind: 6 mph from North

Location: Ndjamena

Current Time: Nov 25, 2014 at 9:55:40 PM

Latest Report: Nov 25, 2014 at 9:00 PM


Visibility: 5 mi

Pressure: 29.89 "Hg

Humidity: 41%

Dew point: 48 °F

Location of NdjamenaLocation

Historic Weather in Ndjamena — Graph

°F

Ndjamena temperature yesterday

Maximum temperature yesterday: 95 °F (at 3:00 PM)
Minimum temperature yesterday: 68 °F (at 4:00 AM)
Average temperature yesterday: 81 °F

Past Weeks' High & Low Weather Summary

 TemperatureHumidityPressure
High102 °F (Nov 11, 1:00 PM)68% (Nov 21, 1:00 AM)29.98 "Hg (Nov 21, 1:00 AM)
Low61 °F (Nov 21, 5:00 AM)5% (Nov 19, 1:00 PM)29.71 "Hg (Nov 11, 3:00 PM)
Average83 °F32%29.84 "Hg
* Reported Nov 10 8:00 PM — Nov 25 8:00 PM, Ndjamena, Weather by CustomWeather, © 2014

Note: Actual official high and low records may vary slightly from our data, if they occured in-between our weather recording intervals... More about our weather records

Advertising

Ndjamena weather history for previous 24 hours

 ConditionsComfort  
Time TempWeatherWind HumidityBarometerVisibility
8:00 PM
Nov 25
77 °FClear.7 mph36%29.89 "Hg4 mi
7:00 PM81 °FHaze.9 mph34%29.86 "Hg2 mi
6:00 PM82 °FClear.8 mph32%29.86 "Hg4 mi
5:00 PM88 °FPassing clouds.9 mph27%29.83 "HgN/A
4:00 PM91 °FPassing clouds.9 mph26%29.83 "HgN/A
3:00 PM91 °FPassing clouds.10 mph26%29.83 "HgN/A
2:00 PM91 °FPassing clouds.9 mph26%29.83 "HgN/A
1:00 PM90 °FClear.10 mph27%29.86 "Hg5 mi
12:00 PM88 °FClear.12 mph31%29.89 "Hg5 mi
11:00 AM86 °FClear.12 mph25%29.92 "Hg5 mi
10:00 AM82 °FClear.12 mph26%29.95 "Hg4 mi
9:00 AM77 °FHaze.13 mph32%29.95 "Hg3 mi
8:00 AM73 °FHaze.10 mph31%29.95 "Hg2 mi
7:00 AM66 °FDuststorm.2 mph49%29.95 "Hg1 mi
6:00 AM63 °FDuststorm.5 mph52%29.92 "Hg1 mi
5:00 AM66 °FDuststorm.6 mph49%29.92 "Hg1 mi
4:00 AM68 °FDuststorm.7 mph46%29.89 "Hg1 mi
3:00 AM70 °FDuststorm.8 mph43%29.89 "Hg1 mi
2:00 AM72 °FDuststorm.8 mph44%29.89 "Hg1 mi
12:00 AM75 °FDuststorm.9 mph41%29.92 "Hg1 mi
11:00 PM
Nov 24
75 °FDuststorm.8 mph41%29.92 "Hg1 mi
10:00 PM77 °FHaze.9 mph39%29.89 "Hg2 mi
9:00 PM77 °FClear.8 mph39%29.89 "Hg10 mi
Weather by CustomWeather, © 2014

See weather overviewHow to use our weather pages